Zurück zum Katalog

ONEWEB-0201

AktivKommunikationPO
NORAD 48241·PAYLOAD·🇬🇧 United Kingdom

Gestartet Apr 25, 2021 von Vostochny Cosmodrome

Loading…

Nächste Überflüge (nächste 24 Stunden)

TLE

AktuellSource: CelesTrak SupGP

Epoche: Sep 14, 2026, 12:08 UTC

1 48241C 21031AH  26257.50574491  .00002389  00000+0  64523-2 0  2573
2 48241  87.8903 271.9017 0001819 102.7204 358.0081 13.14504113    17

Verfolge ONEWEB-0201 in Echtzeit mit AllMySat

Download on the App Store